Location: Albert Place
(40.7505°N, 111.9230°W)
Time: 14:27:11
(UTC+00:00)

Cosmos 1953 Rocket - Pass Details

Date: 13 December 2025
Orbit: 598 x 627 km, 82.5° (Epoch: 17 January)

Event Time Altitude Azimuth Distance (km) Brightness Sun altitude
Rises 14:03:01 0° 180° (S) 2,841 7.3 -7.7°
Reaches altitude 10° 14:05:13 10° 177° (S) 1,946 6.5 -7.3°
Maximum altitude 14:09:29 68° 96° (E) 659 4.0 -6.5°
Drops below altitude 10° 14:13:50 10° 13° (NNE) 1,979 6.0 -5.8°
Sets 14:16:05 0° 11° (N) 2,893 6.8 -5.4°
